Location: Paddlesworth
(51.1000°N, 1.1333°E)
Time: 04:14:58
(UTC+00:00)

Cosmos 2084 Rocket - Pass Details

Date: 11 May 2021
Orbit: 522 x 658 km, 62.8° (Epoch: 14 June)

Event Time Altitude Azimuth Distance (km) Brightness Sun altitude
Rises 21:50:24 0° 315° (NW) 2,752 8.4 -15.8°
Reaches altitude 10° 21:52:37 10° 319° (NW) 1,875 7.3 -16.0°
Maximum altitude 21:56:48 58° 40° (NE) 689 3.9 -16.3°
Enters shadow 21:59:18 24° 111° (ESE) 1,260 4.7 -16.5°
